Powrót do katalogu

FENGYUN 1C DEB

AktywnySSO
NORAD 30700·DEBRIS·🇨🇳 China

Wystrzelony May 10, 1999 z Taiyuan Satellite Launch Center

Loading…

Następne Przeloty (najbliższe 24 godziny)

TLE

ŚwieżeSource: Space-Track

Epoka: Sep 14, 2026, 07:28 UTC

1 30700U 99025ARJ 26257.31155980  .00000229  00000-0  11350-3 0  9995
2 30700  98.5172 282.4148 0087200  60.9295 300.0583 14.24008983 14857

Śledź FENGYUN 1C DEB w czasie rzeczywistym z AllMySat

Download on the App Store